USGS - science for a changing world

Kansas Water Science Center

Jump to content

Jump back to navigation

Current Streamflow Conditions

Welcome to the U.S. Geological Survey (USGS) Web page for the water resources of Kansas. Here you'll find information on Kansas's rivers and streams. You'll also find information about groundwater, water quality, and many other topics. The USGS operates the most extensive satellite network of stream-gaging stations in the state, many of which form the backbone of flood-warning systems.

The Kansas Water Science Center provides current ("real-time") stream stage in Kansas and streamflow, water-quality, and groundwater levels for over 200 sites.
The USGS provides National ("real-time") stream stage and streamflow, water-quality, and groundwater levels for over 7000 sites.

Of Current Interest

USGS Scientific Investigations Report: Streamflow Characteristics and Trends Along Soldier Creek, Northeast Kansas

Press Release: Human Activity Alters Streamflow throughout Kansas

Water-level and recoverable water in storage changes, High Plains aquifer, predevelopment to 2015 and 2013-2015.

USGS Fact Sheet: Summary of hydrologic conditions in Kansas, water year 2016

Press Release: 20 Years Researching Harmful Algal Blooms Supports Sustainable Water Supply in Wichita

USGS WaterAlert Service Turn Around Don't Drown

Now you can receive instant, customized updates about water conditions by subscribing to WaterAlert, a new service from the U.S. Geological Survey. WaterAlert allows you to receive daily or hourly updates about current conditions in rivers, lakes and groundwater when they match conditions of concern to you.

Kansas Lake Report

Kansas Lake Report

Highlighted Publications

The Kansas Water Science Center produces publications about water resources.   Search our publications

Kansas Earthquakes - Last 30 days

  1. 2.8 16km SSE of Conway Springs, Kansas 2017-08-21 15:32:49 CDT
  2. 2.1 17km SSE of Conway Springs, Kansas 2017-08-21 06:55:15 CDT
  3. 2.5 12km S of Conway Springs, Kansas 2017-08-20 18:07:23 CDT
  4. 2.14 22km SSE of Anthony, Kansas 2017-08-20 04:15:22 CDT
  5. 2.4 18km SE of Anthony, Kansas 2017-08-20 01:00:39 CDT
  6. 2.2 11km WNW of Caldwell, Kansas 2017-08-19 19:54:11 CDT
  7. 2.35 18km SE of Anthony, Kansas 2017-08-19 06:31:11 CDT
  8. 1.75 12km W of Wellington, Kansas 2017-08-16 15:52:27 CDT
  9. 3.1 29km ENE of Buffalo, Oklahoma 2017-08-15 12:13:16 CDT
  10. 2.07 12km S of Conway Springs, Kansas 2017-08-15 12:09:25 CDT
  11. 3.1 28km NE of Buffalo, Oklahoma 2017-08-15 12:05:10 CDT
  12. 2.51 14km WSW of Conway Springs, Kansas 2017-08-15 07:27:14 CDT
  13. 1.6 15km SE of Anthony, Kansas 2017-08-13 11:58:16 CDT
  14. 1.73 11km N of Caldwell, Kansas 2017-08-12 18:56:23 CDT
  15. 1.57 5km ESE of Caldwell, Kansas 2017-08-12 17:32:39 CDT
  16. 2.06 14km N of Caldwell, Kansas 2017-08-11 07:37:52 CDT
  17. 1.62 10km N of Caldwell, Kansas 2017-08-10 01:02:18 CDT
  18. 1.89 11km N of Caldwell, Kansas 2017-08-10 00:47:49 CDT
  19. 1.74 13km WSW of Conway Springs, Kansas 2017-08-10 00:04:43 CDT
  20. 1.86 11km N of Caldwell, Kansas 2017-08-09 23:45:48 CDT
  21. 2.2 11km N of Caldwell, Kansas 2017-08-09 17:21:55 CDT
  22. 3.7 10km N of Caldwell, Kansas 2017-08-09 16:15:30 CDT
  23. 1.85 15km ESE of Harper, Kansas 2017-08-09 14:57:25 CDT
  24. 1.67 21km NNW of Caldwell, Kansas 2017-08-07 16:17:33 CDT
  25. 1.84 2km E of Anthony, Kansas 2017-08-07 13:52:53 CDT
  26. 1.91 2km E of Anthony, Kansas 2017-08-07 11:49:01 CDT
  27. 2.33 10km N of Caldwell, Kansas 2017-08-07 06:04:24 CDT
  28. 2.04 10km N of Caldwell, Kansas 2017-08-07 04:51:41 CDT
  29. 1.64 12km N of Caldwell, Kansas 2017-08-06 14:53:21 CDT
  30. 2.9 14km SSE of Conway Springs, Kansas 2017-08-05 21:38:02 CDT
  31. 2.13 11km N of Caldwell, Kansas 2017-08-05 18:57:02 CDT
  32. 1.69 15km S of Conway Springs, Kansas 2017-08-05 17:10:04 CDT
  33. 2.16 15km S of Conway Springs, Kansas 2017-08-05 17:09:14 CDT
  34. 3.4 13km S of Conway Springs, Kansas 2017-08-05 15:13:00 CDT
  35. 2.51 12km S of Conway Springs, Kansas 2017-08-05 10:52:20 CDT
  36. 1.75 11km N of Caldwell, Kansas 2017-08-05 01:11:02 CDT
  37. 2.9 10km N of Caldwell, Kansas 2017-08-05 00:39:59 CDT
  38. 2.9 11km W of Belle Plaine, Kansas 2017-08-05 00:15:51 CDT
  39. 2 10km N of Caldwell, Kansas 2017-08-04 22:35:41 CDT
  40. 3.3 11km N of Caldwell, Kansas 2017-08-04 22:32:52 CDT
  41. 3 11km N of Caldwell, Kansas 2017-08-04 22:14:10 CDT
  42. 1.71 12km N of Caldwell, Kansas 2017-08-03 23:38:02 CDT
  43. 2.3 10km NNW of Caldwell, Kansas 2017-08-03 10:18:03 CDT
  44. 2.3 10km N of Caldwell, Kansas 2017-08-03 08:17:21 CDT
  45. 1.72 12km N of Caldwell, Kansas 2017-08-02 10:09:21 CDT
  46. 1.7 10km N of Caldwell, Kansas 2017-08-02 06:53:55 CDT
  47. 2.9 10km N of Caldwell, Kansas 2017-08-01 23:41:50 CDT
  48. 1.62 11km N of Caldwell, Kansas 2017-08-01 16:50:15 CDT
  49. 1.89 10km N of Caldwell, Kansas 2017-08-01 13:50:03 CDT
  50. 1.99 10km N of Caldwell, Kansas 2017-08-01 04:36:01 CDT
  51. 2.35 10km N of Caldwell, Kansas 2017-08-01 04:34:44 CDT
  52. 3.4 10km N of Caldwell, Kansas 2017-08-01 01:25:12 CDT
  53. 1.5 7km SSE of Anthony, Kansas 2017-08-01 01:15:21 CDT
  54. 1.7 13km WSW of Conway Springs, Kansas 2017-07-31 04:51:09 CDT
  55. 2.5 26km NE of Buffalo, Oklahoma 2017-07-30 21:12:32 CDT
  56. 2.7 10km WNW of Caldwell, Kansas 2017-07-30 15:19:15 CDT
  57. 1.79 13km WSW of Conway Springs, Kansas 2017-07-30 07:25:49 CDT
  58. 1.7 13km WSW of Conway Springs, Kansas 2017-07-29 23:33:46 CDT
  59. 3 4km W of South Hutchinson, Kansas 2017-07-29 19:13:44 CDT
  60. 2.05 7km S of Conway Springs, Kansas 2017-07-29 18:40:32 CDT
  61. 1.52 13km WSW of Conway Springs, Kansas 2017-07-29 16:22:15 CDT
  62. 2.7 28km ENE of Buffalo, Oklahoma 2017-07-29 09:08:57 CDT
  63. 1.71 10km N of Caldwell, Kansas 2017-07-28 16:22:59 CDT
  64. 2.7 30km S of Coldwater, Kansas 2017-07-27 23:18:53 CDT
  65. 1.67 17km WNW of Caldwell, Kansas 2017-07-27 20:27:05 CDT
  66. 1.6 10km N of Caldwell, Kansas 2017-07-27 17:43:28 CDT
  67. 1.88 10km N of Caldwell, Kansas 2017-07-27 13:54:39 CDT
  68. 1.96 11km W of Caldwell, Kansas 2017-07-27 02:21:57 CDT
  69. 2.1 6km ENE of Harper, Kansas 2017-07-26 13:30:23 CDT
  70. 2.6 27km ENE of Buffalo, Oklahoma 2017-07-25 21:55:31 CDT
  71. 2.8 5km E of Harper, Kansas 2017-07-24 19:43:13 CDT
06917500: Flow=6050cfs,Stage=31.83ft,Floodstage=38ft,2017-08-22 19:30,High,MARMATON R NR FORT SCOTT, KS 06916600: Flow=14900cfs,Stage=21.60ft,Floodstage=27ft,2017-08-22 19:45,High,MARAIS DES CYGNES R NR KS-MO ST LINE, KS 06915800: Flow=16100cfs,Stage=26.38ft,Floodstage=25ft,2017-08-22 20:00,High,MARAIS DES CYGNES R AT LA CYGNE, KS 06913500: Flow=17000cfs,Stage=31.09ft,Floodstage=31ft,2017-08-22 19:30,High,MARAIS DES CYGNES R NR OTTAWA, KS 06893500: Flow=17700cfs,Stage=32.48ft,Floodstage=34ft,2017-08-22 19:45,High,Blue River at Kansas City, MO 06892000: Flow=6080cfs,Stage=22.31ft,Floodstage=23ft,2017-08-22 19:30,High,STRANGER C NR TONGANOXIE, KS 06891500: Flow=4900cfs,Stage=24.11ft,Floodstage=23ft,2017-08-22 19:45,High,WAKARUSA R NR LAWRENCE, KS 07188000: Flow=1840cfs,Stage=7.79ft,Floodstage=20ft,2017-08-22 19:00,>90,Spring River near Quapaw, OK 07186000: Flow=2550cfs,Stage=5.26ft,Floodstage=19ft,2017-08-22 19:30,>90,Spring River near Waco, MO 07184000: Flow=55.7cfs,Stage=1.77ft,Floodstage=12ft,2017-08-22 19:45,>90,LIGHTNING C NR MCCUNE, KS 07179730: Flow=449cfs,Stage=4.99ft,Floodstage=26ft,2017-08-22 19:15,>90,NEOSHO R NR AMERICUS, KS 06917000: Flow=2160cfs,Stage=12.13ft,Floodstage=22ft,2017-08-22 19:15,>90,L OSAGE R AT FULTON, KS 06913000: Flow=1800cfs,Stage=7.44ft,Floodstage=20ft,2017-08-22 19:30,>90,MARAIS DES CYGNES R NR POMONA, KS 06911900: Flow=92.2cfs,Stage=8.42ft,Floodstage=19ft,2017-08-22 19:00,>90,DRAGOON C NR BURLINGAME, KS 06893300: Flow=187cfs,Stage=6.79ft,Floodstage=14ft,2017-08-22 19:15,>90,INDIAN C AT OVERLAND PARK, KS 06893080: Flow=659cfs,Stage=7.55ft,Floodstage=16ft,2017-08-22 19:45,>90,BLUE R NR STANLEY, KS 06893000: Flow=143000cfs,Stage=23.64ft,Floodstage=32ft,2017-08-22 19:30,>90,Missouri River at Kansas City, MO 06892350: Flow=47400cfs,Stage=16.03ft,Floodstage=26ft,2017-08-22 19:45,>90,KANSAS R AT DESOTO, KS 06890100: Flow=127cfs,Stage=3.27ft,Floodstage=27ft,2017-08-22 19:45,>90,DELAWARE R NR MUSCOTAH, KS 06889500: Flow=395cfs,Stage=2.25ft,Floodstage=29ft,2017-08-22 20:00,>90,SOLDIER C NR TOPEKA, KS 06888000: Flow=109cfs,Stage=4.73ft,2017-08-22 19:45,>90,VERMILLION C NR WAMEGO, KS 06882510: Flow=4640cfs,Stage=18.76ft,Floodstage=35ft,2017-08-22 19:30,>90,BIG BLUE R AT MARYSVILLE, KS 06882000: Flow=4600cfs,Stage=10.42ft,Floodstage=20ft,2017-08-22 19:00,>90,Big Blue River at Barneston, Nebr. 06884400: Flow=111cfs,Stage=3.74ft,Floodstage=21ft,2017-08-22 19:30,<10,L BLUE R NR BARNES, KS 06884025: Flow=90.9cfs,Stage=1.95ft,Floodstage=19ft,2017-08-22 20:00,<10,Little Blue River at Hollenberg, KS 06876000: Flow=22.1cfs,Stage=2.71ft,Floodstage=20ft,2017-08-22 19:45,<10,SOLOMON R AT BELOIT, KS 06875900: Flow=26.4cfs,Stage=7.59ft,Floodstage=21ft,2017-08-22 19:30,<10,SOLOMON R NR GLEN ELDER, KS 06868200: Flow=11.5cfs,Stage=2.71ft,2017-08-22 19:45,<10,SALINE R AT WILSON DAM, KS 06857100: Flow=52.9cfs,Stage=4.51ft,2017-08-22 19:30,<10,REPUBLICAN R AT JUNCTION CITY, KS 07172000: Flow=46.4cfs,Stage=1.76ft,2017-08-22 20:00,76-90,CANEY R NR ELGIN, KS 07170500: Flow=645cfs,Stage=3.79ft,Floodstage=30ft,2017-08-22 20:00,76-90,VERDIGRIS R AT INDEPENDENCE, KS 07166500: Flow=188cfs,Stage=3.80ft,Floodstage=19ft,2017-08-22 19:45,76-90,VERDIGRIS R NR ALTOONA, KS 07147070: Flow=42.7cfs,Stage=1.86ft,2017-08-22 19:30,76-90,WHITEWATER R AT TOWANDA, KS 07144910: Flow=9.11cfs,Stage=2.76ft,Floodstage=9ft,2017-08-22 20:00,76-90,SF NINNESCAH R NR PRATT, KS 07139000: Flow=76.1cfs,Stage=6.18ft,Floodstage=10ft,2017-08-22 19:30,76-90,ARKANSAS R AT GARDEN CITY, KS 06912500: Flow=25.1cfs,Stage=2.80ft,2017-08-22 19:45,76-90,HUNDRED AND TEN MILE C NR QUENEMO, KS 06911000: Flow=34.0cfs,Stage=2.45ft,2017-08-22 19:45,76-90,MARAIS DES CYGNES R AT MELVERN, KS 06910800: Flow=18.9cfs,Stage=2.46ft,Floodstage=19ft,2017-08-22 19:45,76-90,MARAIS DES CYGNES R NR READING, KS 06891000: Flow=10100cfs,Stage=6.10ft,Floodstage=17ft,2017-08-22 19:30,76-90,KANSAS R AT LECOMPTON, KS 06889200: Flow=32.5cfs,Stage=6.97ft,Floodstage=26ft,2017-08-22 19:30,76-90,SOLDIER C NR DELIA, KS 06888500: Flow=58.1cfs,Stage=2.86ft,Floodstage=21ft,2017-08-22 19:45,76-90,MILL C NR PAXICO, KS 06873000: Flow=15.7cfs,Stage=1.81ft,Floodstage=8.5ft,2017-08-22 19:15,76-90,SF SOLOMON R AB WEBSTER RE, KS 06866900: Flow=7.35cfs,Stage=2.74ft,Floodstage=13ft,2017-08-22 19:00,76-90,SALINE R NR WAKEENEY, KS 06818000: Flow=60200cfs,Stage=11.89ft,Floodstage=17ft,2017-08-22 19:30,76-90,Missouri River at St. Joseph, MO 06813500: Flow=57400cfs,Stage=12.22ft,Floodstage=17ft,2017-08-22 19:30,76-90,Missouri River at Rulo, NE 07156900: Flow=19.9cfs,Stage=2.14ft,Floodstage=5ft,2017-08-22 19:00,10-24,Cimarron River near Forgan, OK 07143665: Flow=3.37cfs,Stage=-0.05ft,Floodstage=22ft,2017-08-22 19:15,10-24,L ARKANSAS R AT ALTA MILLS, KS 07143330: Flow=123cfs,Stage=2.33ft,Floodstage=10ft,2017-08-22 19:30,10-24,ARKANSAS R NR HUTCHINSON, KS 07143300: Flow=3.45cfs,Stage=4.04ft,Floodstage=18ft,2017-08-22 19:30,10-24,COW C NR LYONS, KS 07142575: Flow=3.94cfs,Stage=11.48ft,Floodstage=17ft,2017-08-22 19:30,10-24,RATTLESNAKE C NR ZENITH, KS 07142300: Flow=0.09cfs,Stage=3.02ft,Floodstage=9ft,2017-08-22 19:00,10-24,RATTLESNAKE C NR MACKSVILLE, KS 06888350: Flow=1620cfs,Stage=6.33ft,Floodstage=20ft,2017-08-22 19:30,10-24,KANSAS R NR BELVUE, KS 06887500: Flow=1470cfs,Stage=4.18ft,Floodstage=19ft,2017-08-22 19:30,10-24,KANSAS R AT WAMEGO, KS 06887000: Flow=223cfs,Stage=0.63ft,Floodstage=19ft,2017-08-22 19:00,10-24,BIG BLUE R NR MANHATTAN, KS 06879100: Flow=566cfs,Stage=5.87ft,Floodstage=21ft,2017-08-22 19:30,10-24,KANSAS R AT FORT RILEY, KS 06861000: Flow=0.11cfs,Stage=0.27ft,Floodstage=7ft,2017-08-22 19:30,10-24,SMOKY HILL R NR ARNOLD, KS 06856600: Flow=253cfs,Stage=7.02ft,Floodstage=15ft,2017-08-22 19:30,10-24,REPUBLICAN R AT CLAY CENTER, KS 06856000: Flow=144cfs,Stage=4.82ft,Floodstage=15ft,2017-08-22 19:30,10-24,REPUBLICAN R AT CONCORDIA, KS 06854500: Flow=107cfs,Stage=0.70ft,Floodstage=10ft,2017-08-22 19:15,10-24,REPUBLICAN R AT SCANDIA, KS 06853500: Flow=62.2cfs,Stage=1.57ft,Floodstage=11ft,2017-08-22 19:30,10-24,REPUBLICAN R NR HARDY, NE 06824000: Flow=6.32cfs,Stage=0.41ft,2017-08-22 18:45,10-24,Rock Creek at Parks, Nebr. 07185000: Flow=646cfs,Stage=3.24ft,Floodstage=15ft,2017-08-22 19:30,25-75,Neosho River near Commerce, OK 07183500: Flow=362cfs,Stage=7.66ft,Floodstage=21ft,2017-08-22 19:00,25-75,NEOSHO R NR PARSONS, KS 07183000: Flow=149cfs,Stage=6.94ft,Floodstage=15ft,2017-08-22 19:30,25-75,NEOSHO R NR IOLA, KS 07182510: Flow=58.8cfs,Stage=5.82ft,Floodstage=27ft,2017-08-22 19:15,25-75,NEOSHO R AT BURLINGTON, KS 07182250: Flow=273cfs,Stage=3.63ft,Floodstage=32ft,2017-08-22 20:00,25-75,COTTONWOOD R NR PLYMOUTH, KS 07180500: Flow=8.72cfs,Stage=4.23ft,2017-08-22 19:15,25-75,CEDAR C NR CEDAR POINT, KS 07180400: Flow=56.8cfs,Stage=3.26ft,Floodstage=22ft,2017-08-22 19:15,25-75,COTTONWOOD R NR FLORENCE, KS 07179795: Flow=10.9cfs,Stage=4.85ft,2017-08-22 19:30,25-75,N COTTONWOOD R BL MARION LK, KS 07179500: Flow=14.5cfs,Stage=8.12ft,2017-08-22 20:00,25-75,NEOSHO R AT COUNCIL GROVE, KS 07169800: Flow=6.85cfs,Stage=2.50ft,2017-08-22 20:00,25-75,ELK R AT ELK FALLS, KS 07169500: Flow=67.9cfs,Stage=3.24ft,Floodstage=17ft,2017-08-22 20:00,25-75,FALL R AT FREDONIA, KS 07167500: Flow=1.07cfs,Stage=1.13ft,2017-08-22 19:15,25-75,OTTER C AT CLIMAX, KS 07157500: Flow=6.59cfs,Stage=2.35ft,Floodstage=6.5ft,2017-08-22 19:30,25-75,CROOKED C NR ENGLEWOOD, KS 07151500: Flow=41.5cfs,Stage=2.06ft,Floodstage=10ft,2017-08-22 20:00,25-75,CHIKASKIA R NR CORBIN, KS 07149000: Flow=54.3cfs,Stage=0.63ft,Floodstage=10ft,2017-08-22 19:45,25-75,MEDICINE LODGE R NR KIOWA, KS 07147800: Flow=226cfs,Stage=1.63ft,Floodstage=18ft,2017-08-22 20:00,25-75,WALNUT R AT WINFIELD, KS 07146500: Flow=871cfs,Stage=3.68ft,Floodstage=11ft,2017-08-22 20:00,25-75,ARKANSAS R AT ARKANSAS CITY, KS 07145700: Flow=3.18cfs,Stage=3.57ft,Floodstage=19ft,2017-08-22 20:00,25-75,SLATE C AT WELLINGTON, KS 07145500: Flow=90.3cfs,Stage=2.65ft,Floodstage=17ft,2017-08-22 20:00,25-75,NINNESCAH R NR PECK, KS 07145200: Flow=82.5cfs,Stage=3.63ft,Floodstage=8ft,2017-08-22 20:00,25-75,SF NINNESCAH R NR MURDOCK, KS 07144780: Flow=42.7cfs,Stage=6.12ft,2017-08-22 19:30,25-75,NF NINNESCAH R AB CHENEY RE, KS 07144550: Flow=336cfs,Stage=1.59ft,Floodstage=12ft,2017-08-22 20:00,25-75,ARKANSAS R AT DERBY, KS 07144300: Flow=235cfs,Stage=3.41ft,2017-08-22 19:45,25-75,ARKANSAS R AT WICHITA, KS 07144200: Flow=29.1cfs,Stage=0.87ft,2017-08-22 19:00,25-75,L ARKANSAS R AT VALLEY CENTER, KS 07141780: Flow=0.37cfs,Stage=6.08ft,Floodstage=29ft,2017-08-22 19:15,25-75,WALNUT C AT NEKOMA, KS 07141300: Flow=8.06cfs,Stage=1.20ft,Floodstage=12ft,2017-08-22 19:30,25-75,ARKANSAS R AT GREAT BEND, KS 07138000: Flow=283cfs,Stage=5.43ft,Floodstage=10ft,2017-08-22 19:15,25-75,ARKANSAS R AT SYRACUSE, KS 07137500: Flow=229cfs,Stage=3.66ft,Floodstage=8ft,2017-08-22 19:15,25-75,ARKANSAS R NR COOLIDGE, KS 07137000: Flow=23.6cfs,Stage=11.07ft,2017-08-22 19:45,25-75,FRONTIER DITCH NR COOLIDGE, KS 06889000: Flow=5370cfs,Stage=7.72ft,Floodstage=26ft,2017-08-22 19:30,25-75,KANSAS R AT TOPEKA, KS 06885500: Flow=21.0cfs,Stage=3.23ft,Floodstage=19ft,2017-08-22 19:30,25-75,BLACK VERMILLION R NR FRANKFORT, KS 06884200: Flow=7.28cfs,Stage=1.60ft,Floodstage=18ft,2017-08-22 19:45,25-75,MILL C AT WASHINGTON, KS 06878000: Flow=24.0cfs,Stage=4.70ft,Floodstage=19ft,2017-08-22 19:45,25-75,CHAPMAN C NR CHAPMAN, KS 06877600: Flow=379cfs,Stage=7.14ft,Floodstage=26ft,2017-08-22 19:45,25-75,SMOKY HILL R AT ENTERPRISE, KS 06876900: Flow=101cfs,Stage=3.56ft,Floodstage=24ft,2017-08-22 19:30,25-75,SOLOMON R AT NILES, KS 06876700: Flow=9.28cfs,Stage=4.21ft,Floodstage=18ft,2017-08-22 19:45,25-75,SALT C NR ADA, KS 06874000: Flow=40.8cfs,Stage=4.00ft,Floodstage=14ft,2017-08-22 19:30,25-75,SF SOLOMON R AT OSBORNE, KS 06873460: Flow=23.1cfs,Stage=4.74ft,Floodstage=12ft,2017-08-22 19:30,25-75,SF SOLOMON R AT WOODSTON, KS 06872500: Flow=36.2cfs,Stage=3.90ft,Floodstage=15ft,2017-08-22 19:30,25-75,NF SOLOMON R AT PORTIS, KS 06871500: Flow=8.24cfs,Stage=3.51ft,Floodstage=9ft,2017-08-22 19:45,25-75,BOW C NR STOCKTON, KS 06871000: Flow=12.9cfs,Stage=2.74ft,Floodstage=11ft,2017-08-22 19:30,25-75,NF SOLOMON R AT GLADE, KS 06869500: Flow=57.2cfs,Stage=5.43ft,Floodstage=25ft,2017-08-22 19:30,25-75,SALINE R AT TESCOTT, KS 06867000: Flow=52.7cfs,Stage=5.79ft,Floodstage=18ft,2017-08-22 19:30,25-75,SALINE R NR RUSSELL, KS 06866500: Flow=99.2cfs,Stage=4.30ft,Floodstage=20ft,2017-08-22 19:45,25-75,SMOKY HILL R NR MENTOR, KS 06866000: Flow=80.5cfs,Stage=6.70ft,Floodstage=21ft,2017-08-22 19:30,25-75,SMOKY HILL R AT LINDSBORG, KS 06865500: Flow=92.3cfs,Stage=3.41ft,2017-08-22 19:30,25-75,SMOKY HILL R NR LANGLEY, KS 06864500: Flow=54.6cfs,Stage=1.77ft,Floodstage=20ft,2017-08-22 19:30,25-75,SMOKY HILL R AT ELLSWORTH, KS 06864000: Flow=28.9cfs,Stage=3.58ft,Floodstage=18ft,2017-08-22 19:30,25-75,SMOKY HILL R NR RUSSELL, KS 06863500: Flow=6.22cfs,Stage=5.09ft,Floodstage=26ft,2017-08-22 19:30,25-75,BIG C NR HAYS, KS 06862850: Flow=0.01cfs,Stage=2.06ft,Floodstage=11ft,2017-08-22 19:00,25-75,SMOKY HILL R BL SCHOENCHEN, KS 06862700: Flow=0.48cfs,Stage=3.28ft,2017-08-22 19:30,25-75,SMOKY HILL R NR SCHOENCHEN, KS 06860000: Flow=0.17cfs,Stage=3.97ft,Floodstage=9ft,2017-08-22 19:30,25-75,SMOKY HILL R AT ELKADER, KS 06853800: Flow=3.78cfs,Stage=1.57ft,Floodstage=16ft,2017-08-22 20:00,25-75,WHITE ROCK C NR BURR OAK, KS 06852500: Flow=143cfs,Stage=1.77ft,2017-08-22 19:15,25-75,Courtland Canal at Nebraska-Kansas Stateline 06847900: Flow=1.48cfs,Stage=3.44ft,Floodstage=11ft,2017-08-22 19:45,25-75,PRAIRIE DOG C AB KEITH SEBELIUS LAKE, KS 06823500: Flow=1.06cfs,Stage=0.90ft,Floodstage=11ft,2017-08-22 18:45,25-75,Buffalo Creek near Haigler, Nebr. 06821500: Flow=1.88cfs,Stage=5.33ft,Floodstage=12ft,2017-08-22 18:30,25-75,Arikaree River at Haigler, Nebr. 06815000: Flow=194cfs,Stage=4.38ft,Floodstage=27ft,2017-08-22 19:45,25-75,Big Nemaha River at Falls City, Nebr. 06814000: Flow=4.74cfs,Stage=0.92ft,Floodstage=21ft,2017-08-22 19:45,25-75,TURKEY C NR SENECA, KS 385520094420000: Flow=15.4cfs,2013-07-17 23:45,Not ranked,INDIAN C AT COLLEGE BLVD, JOHNSON CO, KS 375350097262800: Stage=4.50ft,2017-08-22 19:00,Not ranked,L ARKANSAS R UPSTREAM OF ASR FAC NR SEDGWICK, KS 07187600: Flow=2040cfs,Stage=4.17ft,Floodstage=14ft,2017-08-22 19:30,Not ranked,SPRING R NR BAXTER SPRINGS, KS 07186055: Flow=91.8cfs,Stage=6.05ft,2017-08-22 19:45,Not ranked,COW C NR SCAMMON, KS 07185090: Flow=13.2cfs,Stage=8.61ft,2017-08-22 19:15,Not ranked,Tar Creek near Commerce, OK 07184500: Flow=29.8cfs,Stage=6.21ft,2017-08-22 19:00,Not ranked,LABETTE C NR OSWEGO, KS 07183300: Stage=11.59ft,Floodstage=29ft,2017-08-22 19:15,Not ranked,NEOSHO R NR ERIE, KS 07182395: Stage=2.46ft,2017-08-22 19:00,Not ranked,NEOSHO R AT HARTFORD, KS 07182390: Flow=2070cfs,2017-08-22 19:00,Stage=5.46ft,2017-08-22 19:30:00,Floodstage=22ft,Not ranked,NEOSHO R AT NEOSHO RAPIDS, KS 07182260: Flow=1090cfs,Stage=4.70ft,Floodstage=20ft,2017-08-22 19:30,Not ranked,COTTONWOOD R AT EMPORIA, KS 07182200: Flow=6.59cfs,Stage=6.62ft,2017-08-22 19:30,Not ranked,SF COTTONWOOD R NR BAZAAR, KS 07180200: Stage=5.03ft,2017-08-22 19:30,Not ranked,COTTONWOOD R AT MARION, KS 07179785: Flow=0.63cfs,Stage=9.41ft,2017-08-22 19:30,Not ranked,NF COTTONWOOD R NR DURHAM, KS 07179750: Flow=641cfs,Stage=5.33ft,2017-08-22 19:30,Not ranked,NEOSHO R AT BURLINGAME RD NR EMPORIA, KS 07179710: Stage=11.83ft,2017-08-22 19:00,Not ranked,NEOSHO R NR DUNLAP, KS 07179700: Flow=5.00cfs,Stage=9.29ft,2017-08-22 19:15,Not ranked,ROCK C NR DUNLAP, KS 07179300: Flow=3.87cfs,Stage=7.78ft,2017-08-22 19:45,Not ranked,NEOSHO R NR PARKERVILLE, KS 07170990: Flow=810cfs,Stage=4.64ft,2017-08-22 19:45,Not ranked,VERDIGRIS R AT COFFEYVILLE, KS 07170700: Stage=4.00ft,2017-08-22 19:00,Not ranked,BIG HILL C NR CHERRYVALE, KS 07165750: Flow=155cfs,Stage=7.91ft,2017-08-22 20:00,Not ranked,VERDIGRIS R NR VIRGIL, KS 07157940: Flow=1.19cfs,Stage=5.11ft,2017-08-22 20:00,Not ranked,BLUFF C NR BUTTERMILK, KS 07157740: Flow=9.00cfs,Stage=7.34ft,2017-08-22 18:45,Not ranked,CIMARRON R NR BUTTERMILK, KS 07148111: Flow=45.0cfs,Stage=4.76ft,2017-08-22 19:30,Not ranked,GROUSE C NR SILVERDALE, KS 07147900: Stage=2.78ft,Floodstage=18ft,2017-08-22 19:15,Not ranked,WALNUT R AT ARKANSAS CITY, KS 07147190: Stage=4.11ft,Floodstage=21ft,2017-08-22 19:15,Not ranked,WHITEWATER R AT AUGUSTA, KS 07146800: Flow=7.91cfs,Stage=5.73ft,Floodstage=21ft,2017-08-22 19:00,Not ranked,WB WALNUT R NR EL DORADO, KS 07145600: Flow=589cfs,Stage=7.99ft,Floodstage=17ft,2017-08-22 19:45,Not ranked,ARKANSAS R ON HWY 160 AT OXFORD, KS 07144795: Flow=0.43cfs,Stage=1.23ft,2015-11-12 10:00,Not ranked,NF NINNESCAH R AT CHENEY DAM, KS 07144790: Stage=1421.30ft,2017-08-22 19:00,Not ranked,CHENEY RE NR CHENEY, KS 07144570: Flow=406cfs,Stage=6.57ft,Floodstage=16.5ft,2017-08-22 19:15,Not ranked,ARKANSAS R AT MULVANE, KS 07144490: Flow=6.82cfs,Stage=7.38ft,2017-08-22 19:15,Not ranked,COWSKIN C AT KELLOGG ST, WICHITA, KS 07144486: Flow=0.00cfs,Stage=4.52ft,2017-08-22 20:00,Not ranked,CALFSKIN C AT 119TH ST, WICHITA, KS 07144480: Flow=6.40cfs,Stage=7.40ft,Floodstage=18ft,2017-08-22 19:30,Not ranked,COWSKIN C AT 119TH ST AT WICHITA, KS 07144470: Stage=10.82ft,2017-08-22 19:15,Not ranked,COWSKIN C AT 29TH ST NORTH OF WICHITA, KS 07144301: Flow=0.00cfs,Stage=6.49ft,2017-08-22 19:45,Not ranked,FLOODWAY AT ARKANSAS R AT WICHITA, KS 07144201: Flow=0.00cfs,Stage=2.58ft,2017-08-22 19:00,Not ranked,FLOODWAY AT L ARKANSAS R AT VALLEY CENTER, KS 07144100: Flow=17.5cfs,Stage=2.62ft,Floodstage=22ft,2017-08-22 19:15,Not ranked,L ARKANSAS R NR SEDGWICK, KS 07144050: Flow=2.38cfs,Stage=-1.11ft,Floodstage=19ft,2017-08-22 19:15,Not ranked,EMMA C AT SEDGWICK, KS 07143672: Flow=9.32cfs,Stage=5.69ft,Floodstage=25ft,2017-08-22 19:30,Not ranked,L ARKANSAS R AT HWY 50 NR HALSTEAD, KS 07143375: Flow=162cfs,Stage=5.31ft,2017-08-22 19:15,Not ranked,ARKANSAS R NR MAIZE, KS 07143310: Stage=1.59ft,Floodstage=9.5ft,2017-08-22 19:15,Not ranked,COW C NR HUTCHINSON, KS 07142680: Flow=98.1cfs,Stage=8.90ft,2017-08-22 19:00,Not ranked,ARKANSAS R NR NICKERSON, KS 07142019: Flow=5.78cfs,Stage=2.15ft,2017-08-22 20:00,Not ranked,CHEYENNE BOTTOMS DV NR GREAT BEND, KS 07141900: Flow=0.00cfs,Stage=2.20ft,Floodstage=24ft,2017-08-22 19:45,Not ranked,WALNUT C AT ALBERT, KS 07141220: Flow=0.13cfs,Stage=3.88ft,2017-08-22 20:00,Not ranked,ARKANSAS R NR LARNED, KS 07141200: Flow=0.00cfs,Stage=5.90ft,Floodstage=31ft,2017-08-22 19:30,Not ranked,PAWNEE R AT ROZEL, KS 07141000: Flow=0.00cfs,Stage=3.59ft,2017-08-22 19:45,Not ranked,BUCKNER C AT HANSTON, KS 07140900: Flow=0.29cfs,Stage=2.50ft,2017-08-22 19:15,Not ranked,BUCKNER C NR JETMORE, KS 07140890: Flow=1.70cfs,Stage=3.02ft,2017-08-22 19:45,Not ranked,BUCKNER C BL HORSETHIEF RE NR JETMORE, KS 07140880: Flow=1.75cfs,Stage=3.87ft,2017-08-22 19:15,Not ranked,BUCKNER C AB HORSETHIEF RE NR JETMORE, KS 07140850: Flow=0.00cfs,Stage=2.21ft,Floodstage=30ft,2017-08-22 19:00,Not ranked,PAWNEE R NR BURDETT, KS 07139500: Stage=6.00ft,Floodstage=11ft,2017-08-22 19:00,Not ranked,ARKANSAS R AT DODGE CITY, KS 07138075: Flow=5.00cfs,2017-08-07 13:00,Stage=1.45ft,2017-08-22 19:00:00,Not ranked,FARMERS DITCH NR DEERFIELD, KS 07138070: Flow=199cfs,Stage=8.33ft,Floodstage=14ft,2017-08-22 19:45,Not ranked,ARKANSAS R AT DEERFIELD, KS 07138064: Flow=0.84cfs,Stage=5.28ft,2017-08-22 19:15,Not ranked,SOUTHSIDE DITCH RETURN NR DEERFIELD, KS 07138063: Flow=38.8cfs,Stage=2.99ft,2017-08-22 19:00,Not ranked,SOUTHSIDE DITCH NR LAKIN, KS 07138050: Stage=3.79ft,2017-08-22 19:00:00,Not ranked,Equipment malfunction,AMAZON GREAT EASTERN DITCH NR LAKIN, KS 07138020: Flow=272cfs,Stage=7.34ft,2017-08-22 19:45,Not ranked,ARKANSAS R AT KENDALL, KS 07137010: Flow=11.5cfs,Stage=2.56ft,2017-08-22 19:45,Not ranked,FRONTIER DITCH RETURN NR COOLIDGE, KS 07134990: Flow=23.3cfs,Stage=3.87ft,2017-08-22 18:15,Not ranked,WILD HORSE CREEK ABOVE HOLLY, CO 06917630: Flow=129cfs,Stage=3.34ft,2017-08-22 19:15,Not ranked,East Drywood Creek at Prairie State Park 06917560: Flow=4530cfs,Stage=19.30ft,Floodstage=25ft,2017-08-22 19:15,Not ranked,Marmaton River near Richards, MO 06917380: Flow=194cfs,2008-11-12 23:45,Not ranked,MARMATON R NR MARMATON, KS 06917240: Flow=1030cfs,Stage=6.00ft,2017-08-22 20:00,Not ranked,MARMATON R NR UNIONTOWN, KS 06915000: Stage=7.60ft,2017-08-22 19:45:00,Not ranked,Back Water,BIG BULL C NR HILLSDALE, KS 06914995: Stage=924.80ft,2017-08-22 19:30,Not ranked,HILLSDALE LK NR HILLSDALE, KS 06914990: Flow=49.8cfs,Stage=4.15ft,2017-08-22 19:30,Not ranked,L BULL C NR SPRING HILL, KS 06914950: Flow=251cfs,Stage=4.51ft,2017-08-22 20:00,Not ranked,BIG BULL C NR EDGERTON, KS 06914500: Flow=5330cfs,Stage=17.06ft,Floodstage=23ft,2017-08-22 19:30,Not ranked,POTTAWATOMIE C AT LANE, KS 06914100: Flow=3390cfs,Stage=17.34ft,Floodstage=23ft,2017-08-22 19:45,Not ranked,POTTAWATOMIE C NR SCIPIO, KS 06912490: Stage=976.53ft,2017-08-22 19:45,Not ranked,POMONA LK NR QUENEMO, KS 06911490: Flow=166cfs,Stage=1.34ft,Floodstage=10ft,2017-08-22 19:30,Not ranked,SALT C AT LYNDON, KS 06910997: Stage=1036.50ft,2017-08-22 19:30,Not ranked,MELVERN LK NR MELVERN, KS 06893578: Flow=22700cfs,2017-08-22 04:15,Stage=33.40ft,2017-08-22 19:30:00,Floodstage=33ft,Not ranked,Blue River at Stadium Drive in Kansas City, MO 06893562: Stage=4.86ft,2017-08-22 19:45,Not ranked,Brush Creek at Rockhill Road in Kansas City, MO 06893557: Flow=64.4cfs,Stage=36.59ft,Floodstage=47ft,2017-08-22 19:15,Not ranked,Brush Creek at Ward Parkway in Kansas City, MO 06893400: Stage=84.42ft,2017-08-22 19:30,Not ranked,Indian Creek at 103rd St in Kansas City, MO 06893390: Flow=482cfs,Stage=11.96ft,Floodstage=20ft,2017-08-22 19:30,Not ranked,INDIAN C AT STATE LINE RD, LEAWOOD, KS 06893350: Flow=184cfs,Stage=3.40ft,2017-08-22 19:15,Not ranked,TOMAHAWK C NR OVERLAND PARK, KS 06893150: Flow=2590cfs,Stage=29.51ft,Floodstage=35ft,2017-08-22 20:00,Not ranked,Blue River at Blue Ridge Blvd Ext in KC, MO 06893100: Flow=1120cfs,Stage=9.06ft,2017-08-22 19:30,Not ranked,BLUE R AT KENNETH RD, OVERLAND PARK, KS 06892950: Stage=26.98ft,Floodstage=33ft,2017-08-22 19:45,Not ranked,KANSAS R AT KANSAS CITY, KS 06892518: Flow=51200cfs,Stage=15.02ft,2017-08-22 19:45,Not ranked,KANSAS R NR LAKE QUIVIRA, KS 06892513: Flow=879cfs,Stage=51.68ft,2017-08-22 19:30,Not ranked,MILL C AT JOHNSON DRIVE, SHAWNEE, KS 06892495: Flow=2620cfs,Stage=62.29ft,2017-08-22 19:45,Not ranked,CEDAR C NR DESOTO, KS 06892494: Stage=3.82ft,2017-08-22 20:00,Not ranked,CAMP C AT 95TH ST NR DESOTO, KS 06892493: Stage=90.88ft,2017-08-22 05:00,Not ranked,CEDAR C AT 95TH ST NR DESOTO, KS 06892360: Flow=689cfs,Stage=8.59ft,2017-08-22 19:30,Not ranked,KILL C AT 95TH ST NR DESOTO, KS 06891850: Flow=6390cfs,Stage=20.42ft,Floodstage=17ft,2017-08-22 19:30,Not ranked,STRANGER C AT EASTON, KS 06891810: Flow=199cfs,2015-06-09 23:45,Not ranked,STRANGER C NR POTTER, KS 06891478: Stage=879.63ft,2017-08-22 19:00,Not ranked,CLINTON LK NR LAWRENCE, KS 06891260: Flow=2490cfs,Stage=12.23ft,2017-08-22 19:30,Not ranked,WAKARUSA R NR RICHLAND, KS 06891200: Stage=8.18ft,Floodstage=15ft,2017-08-22 19:15,Not ranked,WAKARUSA R AT WAKARUSA, KS 06891080: Flow=12900cfs,Stage=-5.93ft,Floodstage=18ft,2017-08-22 19:45,Not ranked,KANSAS R AT LAWRENCE, KS 06890900: Stage=30.78ft,2017-08-22 19:30:00,Not ranked,Maintenance in progress,DELAWARE R AT PERRY, KS 06890898: Stage=893.86ft,2017-08-22 19:30,Not ranked,PERRY LK NR PERRY, KS 06889630: Flow=126cfs,Stage=5.42ft,Floodstage=24ft,2017-08-22 19:15,Not ranked,SHUNGANUNGA C AT TOPEKA, KS 06889585: Stage=5.43ft,Floodstage=15ft,2017-08-22 19:15,Not ranked,SHUNGANUNGA C AT GAGE BLVD, TOPEKA, KS 06888990: Flow=4200cfs,Stage=6.89ft,2017-08-22 19:30,Not ranked,KANSAS R AT TOPEKA WATER PLANT, KS 06888700: Stage=7.60ft,Floodstage=25ft,2017-08-22 19:30,Not ranked,CROSS C AT ROSSVILLE, KS 06888300: Flow=9.99cfs,Stage=8.51ft,Floodstage=27ft,2017-08-22 19:00,Not ranked,ROCK C NR LOUISVILLE, KS 06886900: Stage=1075.92ft,2017-08-22 19:00,Not ranked,TUTTLE C LK NR MANHATTAN, KS 06886850: Stage=4.71ft,2017-08-22 19:45,Not ranked,MILL C NR RILEY, KS 06886500: Flow=13.2cfs,Stage=0.93ft,Floodstage=16ft,2017-08-22 20:00,Not ranked,FANCY C AT WINKLER, KS 06884700: Stage=20.55ft,Floodstage=26ft,2017-08-22 19:15,Not ranked,BIG BLUE R AT BLUE RAPIDS, KS 06879820: Stage=5.74ft,Floodstage=18ft,2017-08-22 20:00,Not ranked,KANSAS R AT MANHATTAN, KS 06879815: Stage=2.48ft,2017-08-22 20:00,Not ranked,WILDCAT C AT SETH CHILDS RD, MANHATTAN, KS 06879810: Flow=6.06cfs,Stage=2.56ft,Floodstage=14ft,2017-08-22 19:15,Not ranked,WILDCAT C AT SCENIC DRIVE, MANHATTAN, KS 06879805: Stage=7.25ft,2017-08-22 19:00,Not ranked,WILDCAT C AT KEATS, KS 06879650: Flow=0.00cfs,Stage=2.06ft,2017-08-20 19:45,Not ranked,KINGS C NR MANHATTAN, KS 06878600: Flow=27.2cfs,Stage=5.68ft,Floodstage=21ft,2017-08-22 19:15,Not ranked,LYON C NR JUNCTION CITY, KS 06876440: Flow=52.6cfs,Stage=2.35ft,Floodstage=26ft,2017-08-22 19:15,Not ranked,SOLOMON R NR MINNEAPOLIS, KS 06876070: Stage=7.22ft,2017-08-22 19:15,Not ranked,SOLOMON R NR SIMPSON, KS 06870300: Flow=1.48cfs,Stage=19.64ft,2017-08-22 19:15,Not ranked,GYPSUM C NR GYPSUM, KS 06870200: Stage=5.64ft,Floodstage=27ft,2017-08-22 19:45,Not ranked,SMOKY HILL R AT NEW CAMBRIA, KS 06869950: Flow=0.07cfs,Stage=2.43ft,Floodstage=24ft,2017-08-22 19:00,Not ranked,MULBERRY C NR SALINA, KS 06868850: Flow=38.3cfs,Stage=10.96ft,Floodstage=30ft,2017-08-22 19:45,Not ranked,SALINE R AT LINCOLN, KS 06868100: Stage=1516.91ft,2017-08-22 19:30,Not ranked,WILSON LK NR WILSON, KS 06867500: Flow=0.95cfs,Stage=8.50ft,2017-08-22 19:30,Not ranked,PARADISE C NR PARADISE, KS 06865000: Stage=1465.39ft,2017-08-22 19:30,Not ranked,KANOPOLIS LK NR KANOPOLIS, KS 06864050: Flow=58.3cfs,2011-06-08 23:45,Not ranked,SMOKY HILL R NR BUNKER HILL, KS 06863420: Flow=1.38cfs,Stage=1.54ft,2017-08-22 19:15,Not ranked,BIG C NR ELLIS, KS 06863000: Flow=0.33cfs,Stage=1.13ft,2017-08-22 20:00,Not ranked,SMOKY HILL R AT PFEIFER, KS 06861500: Stage=2118.97ft,2017-08-22 19:15,Not ranked,CEDAR BLUFF RE NR ELLIS, KS 06860900: Flow=0.00cfs,Stage=7.00ft,2017-08-22 19:30,Not ranked,HACKBERRY C NR TREGO CENTER, KS 06857050: Stage=1144.78ft,2017-08-22 19:30,Not ranked,MILFORD LK NR JUNCTION CITY, KS 06855850: Flow=2.76cfs,Stage=3.95ft,2017-08-22 19:15,Not ranked,BUFFALO C 4 MI E OF JAMESTOWN, KS 06854000: Stage=-0.12ft,2017-08-22 19:45,Not ranked,WHITE ROCK C AT LOVEWELL, KS 06853020: Flow=7.07cfs,Stage=2.75ft,Floodstage=11ft,2017-08-22 19:30,Not ranked,Republican River at Guide Rock, Nebr. 06848500: Flow=0.00cfs,Stage=1.10ft,Floodstage=21ft,2017-08-22 19:30,Not ranked,PRAIRIE DOG C NR WOODRUFF, KS 06848000: Flow=0.08cfs,2002-09-30 23:00,Not ranked,PRAIRIE DOG C AT NORTON, KS 06846500: Flow=0.00cfs,Stage=2.75ft,Floodstage=16ft,2017-08-22 19:00,Not ranked,BEAVER C AT CEDAR BLUFFS, KS 06845110: Flow=0.63cfs,Stage=4.82ft,Floodstage=17ft,2017-08-22 19:30,Not ranked,SAPPA C NR LYLE, KS 06827500: Flow=0.00cfs,Stage=-0.91ft,Floodstage=9ft,2017-08-22 18:30,Not ranked,South Fork Republican River near Benkelman, Nebr. 06827000: Flow=2.69cfs,Stage=3.06ft,2017-08-22 19:45,Not ranked,SF REPUBLICAN R NR CO-KS ST LINE, KS 06820475: Stage=9.96ft,Floodstage=20ft,2017-08-22 19:00,Not ranked,MISSOURI R AT LEAVENWORTH, KS 06818300: Stage=14.07ft,Floodstage=22ft,2017-08-22 19:00,Not ranked,MISSOURI R AT ATCHISON, KS Go to WaterWatch (offsite) for a larger map with additional options
USGS Home Water Resources Biology Geography Geology Geospatial

Accessibility FOIA Privacy Policies and Notices

Take Pride in America logo USA.gov logo U.S. Department of the Interior | U.S. Geological Survey
Page Contact Information: GS-W-KS_info@usgs.gov
Page Last Modified: 2017-08-18 12:09:55 CDT